Погода в Киевском

Россия / Краснодарский край     45°02′17″N   37°53′22″E
темп.,
°C
ветер,
м/с
пор.,
м/с
влажн.,
%
обл.,
%
осадки,
мм/ч
давл.,
гПа
погр.,
м
11 апреля, вс
вс1100:00+5вюв2594100 0.5 1021201
03:00+5св1597100 1.9 1020266
06:00+6ссв41097100 1.4 1020511
09:00+7св51090100 3.1 1020581
12:00+10всв6882100 0.1 1019825
15:00+10всв4582100 0.1 1019821
18:00+9всв4789100 0.1 1019459
21:00+8всв3799100 1.6 1019409
12 апреля, пн
пн1200:00+8в1399100 2.8 1019202
03:00+8ю2297100 3.4 1019107
06:00+8ю1295100 0.3 102052
09:00+10ю3581100 0.4 1021706
12:00+13ю456599 0.0 10201176
15:00+12ю4567100 0.1 1021948
18:00+11ююз457597 0.1 1021489
21:00+8ююз228971 0.1 102220
13 апреля, вт
вт1300:00+8юз3585100 0.0 1022159
03:00+8ю1289100 0.0 102254
06:00+8ююв1295100 0.9 102274
09:00+9юв138999 1.6 1023243
12:00+12ююз4471100 0.1 10221001
15:00+13юз336894 0.3 1022931
18:00+12зюз347673 0.1 1022380
21:00+8зюз228953 0.1 102217
14 апреля, ср
ср1400:00+7з118999 0.0 102110
03:00+6юз00895 0.0 102010
06:00+5юв119213 0.0 102010
09:00+10юв2381100 0.0 1020398
12:00+14юв2368100 0.1 10191079
15:00+15юз225398 0.4 10171541
18:00+13ссз45765 0.1 1017322
21:00+8зсз229164 0.1 101820
15 апреля, чт
чт1500:00+8ююз119135 0.0 101610
03:00+7ю22895 0.0 101615
06:00+6ююв2288100 0.0 101522
09:00+11юв2676100 0.1 1014233
12:00+10ююз3788100 2.3 1015281
15:00+17ююз695471 2.4 10141136
18:00+14юз487496 0.0 1014454
21:00+8ююз369392 0.0 1015108